Location: Home
(42.5358°N, 72.7383°W)
Time: 21:09:27
(UTC-05:00)

Vanguard 2 Rocket - Pass Details

Date: 03 December 2021
Orbit: 554 x 3325 km, 32.9° (Epoch: 21 January)

Event Time Altitude Azimuth Distance (km) Brightness Sun altitude
Rises 17:47:48 0° 229° (SW) 3,232 11.0 -16.0°
Reaches altitude 10° 17:50:03 10° 219° (SW) 2,525 10.0 -16.4°
Maximum altitude 17:55:24 33° 156° (SSE) 1,889 8.4 -17.4°
Enters shadow 18:00:48 18° 107° (ESE) 3,116 9.1 -18.3°
Drops below altitude 10° 18:03:55 10° 98° (E) 4,089 - -18.9°
Sets 18:08:39 0° 91° (E) 5,592 - -19.7°
